Location: Harwich
(41.7160°N, 69.9939°W)
Time: 18:05:35
(UTC+01:00)

Explorer 7 - Pass Details

Date: 03 February 2023
Orbit: 478 x 657 km, 50.3° (Epoch: 19 March)

Event Time Altitude Azimuth Distance (km) Brightness Sun altitude
Rises 23:49:39 0° 298° (WNW) 2,894 11.3 -10.1°
Reaches altitude 10° 23:51:59 10° 292° (WNW) 2,010 10.6 -10.5°
Maximum altitude 23:56:25 45° 221° (SW) 887 8.3 -11.3°
Drops below altitude 10° 00:00:57 10° 149° (SSE) 2,060 9.5 -12.1°
Sets 00:03:22 0° 143° (SE) 2,974 10.3 -12.6°
